timestamp,wind_dir_avg,wind_spd_avg,wind_spd_max_dir,wind_spd_gust,battery_voltage,lat,long
2023-05-25 00:04:00+00:00,201.0,6.25,204.0,6.79,13.05,47.59359,-54.27349
2023-05-25 00:14:00+00:00,211.0,5.64,213.0,6.48,12.57,47.59359,-54.27349
2023-05-25 00:24:00+00:00,211.0,6.28,212.0,6.71,12.57,47.59359,-54.27349
2023-05-25 00:34:00+00:00,209.0,5.97,211.0,6.5,12.57,47.59359,-54.27349
2023-05-25 00:44:00+00:00,206.0,5.65,207.0,6.25,12.57,47.59359,-54.27349
2023-05-25 00:54:00+00:00,209.0,4.96,212.0,5.47,12.57,47.59359,-54.27349
2023-05-25 01:04:00+00:00,211.0,5.41,213.0,5.98,12.57,47.59359,-54.27349
2023-05-25 01:14:00+00:00,208.0,6.25,209.0,6.7,12.41,47.59359,-54.27349
2023-05-25 01:24:00+00:00,206.0,5.48,205.0,5.94,12.41,47.59359,-54.27349
2023-05-25 01:34:00+00:00,209.0,5.5,211.0,6.01,12.41,47.59359,-54.27349
2023-05-25 01:44:00+00:00,205.0,5.22,205.0,5.87,12.41,47.59359,-54.27349
2023-05-25 01:54:00+00:00,207.0,5.14,206.0,5.63,12.41,47.59359,-54.27349
2023-05-25 02:04:00+00:00,209.0,5.1,210.0,5.58,12.41,47.59359,-54.27349
2023-05-25 02:14:00+00:00,211.0,4.98,212.0,5.38,12.33,47.59359,-54.27349
2023-05-25 02:24:00+00:00,212.0,5.11,213.0,5.52,12.33,47.59359,-54.27349
2023-05-25 02:34:00+00:00,211.0,5.03,212.0,5.7,12.33,47.59359,-54.27349
2023-05-25 02:44:00+00:00,205.0,4.12,209.0,4.64,12.33,47.59359,-54.27349
2023-05-25 02:54:00+00:00,198.0,3.66,197.0,4.06,12.33,47.59359,-54.27349
2023-05-25 03:04:00+00:00,197.0,4.83,197.0,5.48,12.33,47.59359,-54.27349
2023-05-25 03:14:01+00:00,202.0,3.96,204.0,4.66,12.33,47.59359,-54.27349
2023-05-25 03:24:01+00:00,214.0,4.0,214.0,4.46,12.33,47.59359,-54.27349
2023-05-25 03:34:01+00:00,213.0,3.6,223.0,4.22,12.33,47.59359,-54.27349
2023-05-25 03:44:01+00:00,223.0,4.42,225.0,5.12,12.33,47.59359,-54.27349
2023-05-25 03:54:01+00:00,225.0,4.58,221.0,5.42,12.33,47.59359,-54.27349
2023-05-25 04:04:01+00:00,224.0,5.03,228.0,5.7,12.33,47.59359,-54.27349
2023-05-25 04:14:00+00:00,228.0,5.36,229.0,6.09,12.25,47.59359,-54.27349
2023-05-25 04:24:00+00:00,230.0,4.6,226.0,5.09,12.25,47.59359,-54.27349
2023-05-25 04:34:00+00:00,226.0,5.11,226.0,5.72,12.25,47.59359,-54.27349
2023-05-25 04:44:00+00:00,226.0,5.21,238.0,6.68,12.25,47.59359,-54.27349
2023-05-25 04:54:00+00:00,221.0,5.8,218.0,6.63,12.25,47.59359,-54.27349
2023-05-25 05:04:00+00:00,220.0,5.35,222.0,5.96,12.25,47.59359,-54.27349
2023-05-25 05:14:01+00:00,215.0,5.66,215.0,6.12,12.25,47.59359,-54.27349
2023-05-25 05:24:01+00:00,222.0,4.78,219.0,5.51,12.25,47.59359,-54.27349
2023-05-25 05:34:01+00:00,215.0,6.06,217.0,6.76,12.25,47.59359,-54.27349
2023-05-25 05:44:01+00:00,222.0,6.92,231.0,9.41,12.25,47.59359,-54.27349
2023-05-25 05:54:01+00:00,214.0,7.36,217.0,8.09,12.25,47.59359,-54.27349
2023-05-25 06:04:01+00:00,216.0,6.79,213.0,7.77,12.25,47.59359,-54.27349
2023-05-25 06:14:01+00:00,212.0,7.5,210.0,8.09,12.25,47.59359,-54.27349
2023-05-25 06:24:01+00:00,218.0,7.45,233.0,9.72,12.25,47.59359,-54.27349
2023-05-25 06:34:01+00:00,224.0,6.48,239.0,9.56,12.25,47.59359,-54.27349
2023-05-25 06:44:01+00:00,224.0,6.0,237.0,8.62,12.25,47.59359,-54.27349
2023-05-25 06:54:01+00:00,211.0,6.93,210.0,7.53,12.25,47.59359,-54.27349
2023-05-25 07:04:01+00:00,216.0,6.59,233.0,8.99,12.25,47.59359,-54.27349
2023-05-25 07:14:01+00:00,214.0,7.08,222.0,7.93,12.17,47.59359,-54.27349
2023-05-25 07:24:01+00:00,206.0,6.47,211.0,7.47,12.17,47.59359,-54.27349
2023-05-25 07:34:01+00:00,222.0,6.02,226.0,6.98,12.17,47.59359,-54.27349
2023-05-25 07:44:01+00:00,212.0,5.39,216.0,5.9,12.17,47.59359,-54.27349
2023-05-25 07:54:01+00:00,222.0,3.98,223.0,4.8,12.17,47.59359,-54.27349
2023-05-25 08:04:01+00:00,222.0,5.43,217.0,6.09,12.17,47.59359,-54.27349
2023-05-25 08:14:01+00:00,220.0,5.34,219.0,5.81,12.17,47.59359,-54.27349
2023-05-25 08:24:01+00:00,213.0,4.49,217.0,5.42,12.17,47.59359,-54.27349
2023-05-25 08:34:01+00:00,210.0,4.45,218.0,5.93,12.17,47.59359,-54.27349
2023-05-25 08:44:01+00:00,164.0,3.97,156.0,5.17,12.17,47.59359,-54.27349
2023-05-25 08:54:01+00:00,211.0,4.43,218.0,5.29,12.17,47.59359,-54.27349
2023-05-25 09:04:01+00:00,167.0,4.31,162.0,5.32,12.17,47.59359,-54.27349
2023-05-25 09:14:01+00:00,193.0,3.17,227.0,5.23,12.33,47.59359,-54.27349
2023-05-25 09:24:01+00:00,142.0,3.21,139.0,3.69,12.33,47.59359,-54.27349
2023-05-25 09:34:01+00:00,122.0,2.12,118.0,2.58,12.33,47.59359,-54.27349
2023-05-25 09:44:01+00:00,135.0,2.12,139.0,2.8,12.33,47.59359,-54.27349
2023-05-25 09:54:01+00:00,186.0,2.3,154.0,3.11,12.33,47.59359,-54.27349
2023-05-25 10:04:01+00:00,121.0,0.95,98.0,2.59,12.33,47.59359,-54.27349
2023-05-25 10:14:00+00:00,148.0,1.65,131.0,2.93,13.05,47.59359,-54.27349
2023-05-25 10:24:00+00:00,110.0,2.03,110.0,2.75,13.05,47.59359,-54.27349
2023-05-25 10:34:00+00:00,184.0,2.35,182.0,2.94,13.05,47.59359,-54.27349
2023-05-25 10:44:00+00:00,168.0,1.45,214.0,2.03,13.05,47.59359,-54.27349
2023-05-25 10:54:00+00:00,193.0,1.31,123.0,2.2,13.05,47.59359,-54.27349
2023-05-25 11:04:00+00:00,178.0,0.91,174.0,1.24,13.05,47.59359,-54.27349
2023-05-25 11:14:00+00:00,150.0,0.88,153.0,1.62,13.6,47.59359,-54.27349
2023-05-25 11:24:00+00:00,194.0,1.6,196.0,1.92,13.6,47.59359,-54.27349
2023-05-25 11:34:00+00:00,325.0,0.19,296.0,0.5,13.6,47.59359,-54.27349
2023-05-25 11:44:00+00:00,243.0,0.9,251.0,1.33,13.6,47.59359,-54.27349
2023-05-25 11:54:00+00:00,237.0,0.69,239.0,0.96,13.6,47.59359,-54.27349
2023-05-25 12:04:00+00:00,237.0,0.76,238.0,0.95,13.6,47.59359,-54.27349
2023-05-25 12:14:00+00:00,137.0,0.81,108.0,2.03,13.53,47.59359,-54.27349
2023-05-25 12:24:00+00:00,134.0,0.77,255.0,2.41,13.53,47.59359,-54.27349
2023-05-25 12:34:00+00:00,116.0,0.45,96.0,1.73,13.53,47.59359,-54.27349
2023-05-25 12:44:00+00:00,12.0,0.67,63.0,1.85,13.53,47.59359,-54.27349
2023-05-25 12:54:00+00:00,340.0,0.6,331.0,0.8,13.53,47.59359,-54.27349
2023-05-25 13:04:00+00:00,14.0,1.18,27.0,1.38,13.53,47.59359,-54.27349
2023-05-25 13:14:00+00:00,47.0,2.18,51.0,2.55,13.6,47.59359,-54.27349
2023-05-25 13:24:00+00:00,25.0,2.16,48.0,3.08,13.6,47.59359,-54.27349
2023-05-25 13:34:00+00:00,41.0,2.43,38.0,2.74,13.6,47.59359,-54.27349
2023-05-25 13:44:00+00:00,35.0,2.28,43.0,2.92,13.6,47.59359,-54.27349
2023-05-25 13:54:00+00:00,33.0,2.06,35.0,2.47,13.6,47.59359,-54.27349
2023-05-25 14:04:00+00:00,18.0,1.11,18.0,1.36,13.6,47.59359,-54.27349
2023-05-25 14:14:00+00:00,340.0,1.38,340.0,1.65,13.84,47.59359,-54.27349
2023-05-25 14:24:00+00:00,316.0,1.38,310.0,1.71,13.84,47.59359,-54.27349
2023-05-25 14:34:00+00:00,304.0,1.19,303.0,1.52,13.84,47.59359,-54.27349
2023-05-25 14:44:00+00:00,318.0,1.18,308.0,1.41,13.84,47.59359,-54.27349
2023-05-25 14:54:00+00:00,355.0,0.26,288.0,0.78,13.84,47.59359,-54.27349
2023-05-25 15:04:00+00:00,155.0,1.13,158.0,1.32,13.84,47.59359,-54.27349
2023-05-25 15:14:00+00:00,159.0,1.54,160.0,1.75,13.6,47.59359,-54.27349
2023-05-25 15:24:00+00:00,143.0,1.11,144.0,1.35,13.6,47.59359,-54.27349
2023-05-25 15:34:00+00:00,168.0,0.68,160.0,0.8,13.6,47.59359,-54.27349
2023-05-25 15:44:00+00:00,6.0,0.81,5.0,1.03,13.6,47.59359,-54.27349
2023-05-25 15:54:00+00:00,3.0,1.19,6.0,1.4,13.6,47.59359,-54.27349
2023-05-25 16:04:00+00:00,22.0,1.99,21.0,2.34,13.6,47.59359,-54.27349
2023-05-25 16:14:00+00:00,15.0,1.86,15.0,2.4,13.68,47.59359,-54.27349
2023-05-25 16:24:00+00:00,6.0,1.45,6.0,1.71,13.68,47.59359,-54.27349
2023-05-25 16:34:00+00:00,31.0,1.85,35.0,2.22,13.68,47.59359,-54.27349
2023-05-25 16:44:00+00:00,25.0,1.25,22.0,1.46,13.68,47.59359,-54.27349
2023-05-25 16:54:00+00:00,40.0,0.9,36.0,1.06,13.68,47.59359,-54.27349
2023-05-25 17:04:00+00:00,344.0,0.82,344.0,0.97,13.68,47.59359,-54.27349
2023-05-25 17:14:00+00:00,19.0,0.44,18.0,0.55,13.68,47.59359,-54.27349
2023-05-25 17:24:00+00:00,28.0,1.31,26.0,1.56,13.68,47.59359,-54.27349
2023-05-25 17:34:00+00:00,12.0,1.78,16.0,1.92,13.68,47.59359,-54.27349
2023-05-25 17:44:00+00:00,13.0,1.14,13.0,1.32,13.68,47.59359,-54.27349
2023-05-25 17:54:00+00:00,10.0,1.75,8.0,2.04,13.68,47.59359,-54.27349
2023-05-25 18:04:00+00:00,12.0,2.02,10.0,2.34,13.68,47.59359,-54.27349
2023-05-25 18:14:00+00:00,22.0,2.51,18.0,2.73,13.68,47.59359,-54.27349
2023-05-25 18:24:00+00:00,18.0,2.23,12.0,2.48,13.68,47.59359,-54.27349
2023-05-25 18:34:00+00:00,22.0,2.1,20.0,2.32,13.68,47.59359,-54.27349
2023-05-25 18:44:00+00:00,24.0,2.34,34.0,2.62,13.68,47.59359,-54.27349
2023-05-25 18:54:00+00:00,71.0,5.67,72.0,6.21,13.68,47.59359,-54.27349
2023-05-25 19:04:00+00:00,67.0,5.41,68.0,6.0,13.68,47.59359,-54.27349
2023-05-25 19:14:00+00:00,67.0,6.02,69.0,6.37,13.6,47.59359,-54.27349
2023-05-25 19:24:00+00:00,64.0,6.58,61.0,6.99,13.6,47.59359,-54.27349
2023-05-25 19:34:00+00:00,63.0,4.75,73.0,6.05,13.6,47.59359,-54.27349
2023-05-25 19:44:00+00:00,68.0,6.42,69.0,6.87,13.6,47.59359,-54.27349
2023-05-25 19:54:00+00:00,69.0,4.73,75.0,5.43,13.6,47.59359,-54.27349
2023-05-25 20:04:00+00:00,65.0,4.75,69.0,5.64,13.6,47.59359,-54.27349
2023-05-25 20:14:00+00:00,62.0,5.26,64.0,6.0,13.44,47.59359,-54.27349
2023-05-25 20:24:00+00:00,60.0,5.16,66.0,5.73,13.44,47.59359,-54.27349
2023-05-25 20:34:00+00:00,60.0,5.28,58.0,6.19,13.44,47.59359,-54.27349
2023-05-25 20:44:00+00:00,59.0,4.27,67.0,5.71,13.44,47.59359,-54.27349
2023-05-25 20:54:00+00:00,59.0,4.54,58.0,5.11,13.44,47.59359,-54.27349
2023-05-25 21:04:00+00:00,65.0,4.16,67.0,4.69,13.44,47.59359,-54.27349
2023-05-25 21:14:00+00:00,71.0,4.19,79.0,6.2,13.13,47.59359,-54.27349
2023-05-25 21:24:00+00:00,67.0,3.59,71.0,4.06,13.13,47.59359,-54.27349
2023-05-25 21:34:00+00:00,66.0,4.48,66.0,4.74,13.13,47.59359,-54.27349
2023-05-25 21:44:00+00:00,60.0,4.48,64.0,4.96,13.13,47.59359,-54.27349
2023-05-25 21:54:00+00:00,60.0,4.75,61.0,5.41,13.13,47.59359,-54.27349
2023-05-25 22:04:00+00:00,59.0,3.74,61.0,4.42,13.13,47.59359,-54.27349
2023-05-25 22:14:01+00:00,61.0,4.28,62.0,5.34,12.89,47.59359,-54.27349
2023-05-25 22:24:01+00:00,67.0,4.49,72.0,5.26,12.89,47.59359,-54.27349
2023-05-25 22:34:01+00:00,68.0,5.05,66.0,5.56,12.89,47.59359,-54.27349
2023-05-25 22:44:01+00:00,66.0,5.32,64.0,5.73,12.89,47.59359,-54.27349
2023-05-25 22:54:01+00:00,62.0,4.96,58.0,5.86,12.89,47.59359,-54.27349
2023-05-25 23:04:01+00:00,63.0,5.22,63.0,6.26,12.89,47.59359,-54.27349
2023-05-25 23:14:00+00:00,61.0,5.57,56.0,6.29,12.41,47.59359,-54.27349
2023-05-25 23:24:00+00:00,61.0,5.73,65.0,6.33,12.41,47.59359,-54.27349
2023-05-25 23:34:00+00:00,59.0,5.92,59.0,6.54,12.41,47.59359,-54.27349
2023-05-25 23:44:00+00:00,60.0,6.64,61.0,7.33,12.41,47.59359,-54.27349
2023-05-25 23:54:00+00:00,63.0,6.39,63.0,7.38,12.41,47.59359,-54.27349
